TimeMDT,TemperatureF,Dew PointF,Humidity,Sea Level PressureIn,VisibilityMPH,Wind Direction,Wind SpeedMPH,Gust SpeedMPH,PrecipitationIn,Events,Conditions,WindDirDegrees,DateUTC
12:53 AM,33.1,32.0,96,30.38,1.5,NNE,15.0,-,0.03,Snow,Light Snow,20,2013-10-04 06:53:00
1:06 AM,33.1,32.0,96,30.31,1.5,NNE,13.8,-,0.00,Snow,Light Snow,20,2013-10-04 07:06:00
1:16 AM,33.1,32.0,96,30.31,1.0,NNE,12.7,-,0.01,Snow,Light Snow,30,2013-10-04 07:16:00
1:28 AM,32.0,32.0,100,30.30,0.5,NNE,12.7,-,0.01,Fog-Snow,Snow,20,2013-10-04 07:28:00
1:53 AM,32.0,32.0,100,30.42,0.5,NE,9.2,-,0.03,Fog-Snow,Snow,40,2013-10-04 07:53:00
2:48 AM,32.0,32.0,100,30.33,0.2,NNE,6.9,-,0.02,Fog-Snow,Heavy Snow,20,2013-10-04 08:48:00
2:53 AM,32.0,32.0,100,30.43,0.2,North,5.8,-,0.03,Fog-Snow,Heavy Snow,10,2013-10-04 08:53:00
3:09 AM,32.0,32.0,100,30.34,0.5,North,5.8,-,0.00,Fog-Snow,Snow,10,2013-10-04 09:09:00
3:40 AM,32.0,30.9,96,30.34,1.0,North,5.8,-,0.02,Snow,Light Snow,350,2013-10-04 09:40:00
3:53 AM,32.0,30.9,96,30.44,2.0,North,8.1,-,0.03,Snow,Light Snow,360,2013-10-04 09:53:00
4:53 AM,32.0,30.9,96,30.46,3.0,NW,5.8,-,0.01,Snow,Light Snow,320,2013-10-04 10:53:00
5:53 AM,32.0,30.9,96,30.49,4.0,WNW,4.6,-,0.00,Snow,Light Snow,300,2013-10-04 11:53:00
6:53 AM,33.1,30.0,89,30.49,10.0,NNW,9.2,-,0.00,,Overcast,330,2013-10-04 12:53:00
7:53 AM,34.0,30.9,89,30.49,10.0,NNW,9.2,-,N/A,,Overcast,340,2013-10-04 13:53:00
8:53 AM,34.0,30.9,89,30.52,10.0,NNW,6.9,-,N/A,,Mostly Cloudy,330,2013-10-04 14:53:00
9:53 AM,35.1,30.9,85,30.52,10.0,North,10.4,-,N/A,,Mostly Cloudy,350,2013-10-04 15:53:00
10:53 AM,37.0,30.0,76,30.52,10.0,NNW,13.8,-,N/A,,Mostly Cloudy,340,2013-10-04 16:53:00
11:11 AM,37.9,30.0,73,30.45,10.0,NNW,13.8,-,N/A,,Mostly Cloudy,340,2013-10-04 17:11:00
11:50 AM,37.4,30.2,75,30.45,10.0,North,13.8,-,N/A,,Mostly Cloudy,360,2013-10-04 17:50:00
11:53 AM,37.9,30.0,73,30.53,10.0,North,13.8,-,N/A,,Mostly Cloudy,360,2013-10-04 17:53:00
12:53 PM,39.9,28.9,65,30.50,10.0,North,15.0,-,N/A,,Scattered Clouds,350,2013-10-04 18:53:00
1:53 PM,42.1,27.0,55,30.48,10.0,North,16.1,21.9,N/A,,Scattered Clouds,360,2013-10-04 19:53:00
2:53 PM,42.1,27.0,55,30.48,10.0,North,12.7,-,N/A,,Overcast,360,2013-10-04 20:53:00
3:53 PM,43.0,26.1,51,30.48,10.0,North,8.1,-,N/A,,Overcast,10,2013-10-04 21:53:00
4:53 PM,43.0,27.0,53,30.48,10.0,NNE,8.1,-,N/A,,Mostly Cloudy,20,2013-10-04 22:53:00
5:53 PM,42.1,30.0,62,30.47,10.0,West,6.9,-,N/A,,Mostly Cloudy,280,2013-10-04 23:53:00
6:53 PM,41.0,32.0,70,30.46,10.0,West,6.9,-,N/A,,Mostly Cloudy,280,2013-10-05 00:53:00
7:53 PM,39.0,30.0,70,30.46,10.0,West,11.5,-,N/A,,Scattered Clouds,280,2013-10-05 01:53:00
8:53 PM,37.0,28.0,70,30.46,10.0,WNW,11.5,-,N/A,,Partly Cloudy,290,2013-10-05 02:53:00
9:53 PM,35.1,28.9,78,30.45,10.0,SW,8.1,-,N/A,,Clear,220,2013-10-05 03:53:00
10:53 PM,36.0,28.0,73,30.43,10.0,WSW,13.8,-,N/A,,Clear,240,2013-10-05 04:53:00
11:53 PM,33.1,28.0,82,30.42,10.0,SW,9.2,-,N/A,,Clear,220,2013-10-05 05:53:00